Content
SEND FEEDBACK

Daily
Averages
Monthly
Summary
Thailand

SURAT THANI, THAILAND


Home > Asia > Thailand
Elevation: 36 feet     Latitude: 09 07N     Longitude: 099 21E

WEATHER
 
SELECT A DAY
Number of Records: 61,600;   Date Range: 12/16/03 - 8/12/14
 
SHARE

PRINT THIS DATA

[ ← Previous Day ]
WEATHER ALMANAC - FEBRUARY 13, 2013
[ Next Day → ]
[ °C ]   °F
Weather ElementAverageHighLow
Temperature82.4 °F90 °F (1:00 pm)73.4 °F (7:00 am)
Dewpoint74.7 °F80.6 °F (9:00 am)71 °F (7:00 pm)
Humidity78.4 %100 % (1:00 am)50 % (1:00 pm)
Barometer29.82 in29.86 in (9:00 am)29.77 in (3:00 pm)
Wind Speed7 mph15 mph (12:00 pm)
Weather ElementAverage
Visibility4.3 mi
Wind DirectionENE (83.8 °)

Weather ElementTotal
Precipitation---
Cooling Degree Days16.7 (Base 65)
Growing Degree Days31.7 (Base 50)
Averaged from 26 records on February 13, 2013
WEATHER CONDITIONS BREAKOUT
WIND DIRECTION BREAKOUT
WEATHER BY HOUR - FEBRUARY 13, 2013
[ °C ]   °F
Local TimeTemperatureDewpointHumidityBarometerVisibilityWind DirectionWind SpeedGust SpeedPrecipitationEventsConditions
1:00 AM76.0 °F73.0 °F89 %29.82 in3.0 miCalmMist
1:00 AM75.2 °F75.2 °F100 %29.83 in3.1 miWSW (240°)4.6 mphPartly Cloudy
2:00 AM75.2 °F75.2 °F100 %29.80 in3.1 miCalmPartly Cloudy
4:00 AM77.0 °F75.2 °F94 %29.80 in2.5 miNNW (330°)4.6 mphPartly Cloudy
6:00 AM75.2 °F75.2 °F100 %29.80 in3.1 miWSW (240°)2.3 mphPartly Cloudy
7:00 AM74.0 °F72.0 °F93 %29.81 in3.0 miCalmMist
7:00 AM73.4 °F73.4 °F100 %29.80 in2.5 miEast (90°)2.3 mphMostly Cloudy
8:00 AM77.0 °F77.0 °F100 %29.83 in4.3 miCalmMostly Cloudy
9:00 AM80.6 °F80.6 °F100 %29.86 in5.0 miNNW (330°)4.6 mphScattered Clouds
10:00 AM86.0 °F77.0 °F74 %29.86 in5.0 miNE (40°)6.9 mphScattered Clouds
10:35 AM86.0 °F77.0 °F74 %29.86 in5.0 miNE (40°)6.9 mphScattered Clouds
11:00 AM87.8 °F75.2 °F66 %29.86 in5.0 miENE (60°)8.1 mphScattered Clouds
12:00 PM87.8 °F75.2 °F66 %29.86 in5.0 miNE (50°)15.0 mphMostly Cloudy
1:00 PM89.6 °F75.2 °F62 %29.83 in5.0 miNE (40°)15.0 mphScattered Clouds
1:00 PM90.0 °F74.0 °F50 %29.83 in6.0 miNE (50°)5.8 mphHaze
2:00 PM89.6 °F75.2 °F62 %29.80 in5.0 miENE (60°)15.0 mphMostly Cloudy
3:00 PM89.6 °F73.4 °F59 %29.77 in5.0 miNE (50°)13.8 mphScattered Clouds
4:00 PM89.6 °F75.2 °F62 %29.77 in5.0 miNE (40°)15.0 mphScattered Clouds
5:00 PM89.6 °F71.6 °F55 %29.77 in5.0 miENE (60°)13.8 mphPartly Cloudy
6:00 PM87.8 °F73.4 °F62 %29.77 in5.0 miNE (40°)12.7 mphPartly Cloudy
7:00 PM84.2 °F73.4 °F70 %29.80 in4.3 miENE (60°)9.2 mphScattered Clouds
7:00 PM83.0 °F71.0 °F60 %29.80 in5.0 miNE (40°)3.5 mphMist
8:00 PM82.4 °F73.4 °F74 %29.80 in4.3 miENE (60°)9.2 mphPartly Cloudy
9:00 PM80.6 °F75.2 °F84 %29.83 in4.3 miENE (60°)9.2 mphPartly Cloudy
10:00 PM77.0 °F75.2 °F94 %29.86 in3.7 miCalmPartly Cloudy
11:00 PM78.8 °F75.2 °F89 %29.86 in3.7 miNNE (30°)3.5 mphPartly Cloudy
Hourly data recorded from VTSB, located miles away from Surat Thani, Thailand







STORIES FROM OUR PARTNERS